SL-8 R/B

Satellite information

Favourite Embed

Satellite Type and Status

ROCKET BODYIN ORBIT

Key statistics

Satellite SL-8 R/B at a glance.

Uptime

12666

Days in orbit

Revolutions

≈ 13.8

Per day

Orbit

LEO

Low Earth Orbit

Inclination

83.0

Latest

Satellite identification and parameters

Extended collection of information and parameters for SL-8 R/B.

Object identification

Identified? True

Debris? False

Object name: SL-8 R/B

International designator: 1991-029B

Object number (NORAD): 21231

Object ID (CCSDS): 21231

Country: COMMONWEALTH OF INDEPENDENT STATES (CIS)

Current information (Y/N): Y

RCS size: LARGE

Orbital parameters

Period: 104.643 minutes

Inclination: 82.9519 deg

SMA: 7355.879 km

Apoapsis: 1003.53 km

Periapsis: 951.957 km

RAAN: 326.8787 deg

Eccentricy: 0.00350556

Argument of periapsis: 186.2929 deg

Mean anomaly: 227.2877 deg

Mean motion: 13.76102872 rev/day

Mean motion (dot): 0.00000046 rev/day2

B* drag term: 0.000031556908 1/REarth

Two-line elements (TLE)

Creation date: Dec. 19, 2025, 2:08 a.m.

Reference frame: TEME

Reference center: EARTH

Epoch: Dec. 18, 2025, 10:41 p.m. UTC

TLE line 0: 0 SL-8 R/B

TLE line 1: 1 21231U 91029B 25352.94574347 .00000046 00000-0 31557-4 0 9995

TLE line 2: 2 21231 82.9519 326.8787 0035056 186.2929 227.2877 13.76102872740735

Live tracking on map

Real-time ground track for satellite SL-8 R/B.

In-orbit conjunctions

A list of the most updated potential collisions computed for object SL-8 R/B.

Target Orbit TCA Probability of collision Miss distance Type
FENGYUN 1C DEB SSO 2025-04-02 16:28:33 0.0004166505 517.0 (m) DEBRIS
COSMOS 926 LEO 2024-10-13 10:04:23 0.001835502 698.0 (m) PAYLOAD

Associated space launch

Navigation satellite providing location information for the Tsiklon-B navigation system

SL-8 R/B was lifted into orbit during the mission ‘Kosmos-3M | Parus 72’, on board a Kosmos-3M space rocket.

The launch took place on April 16, 1991, 7:21 a.m. from 132/1 (132L).

For more information about the launch, click the button.

Launch to space Kosmos-3M | Parus 72
Kosmos-3M | Parus 72

Agency: N/A

Status: Launch Successful

Launch date: April 16, 1991, 7:21 a.m. UTC

Rocket: Kosmos-3M

Launch pad: 132/1 (132L)

Location: Plesetsk Cosmodrome, Russian Federation

...

Latest news about this satellite

There are no fresh news available about this satellite. Check back as we update our databases every day.


Newsletter sign-up

Weekly statistics, charts and insights to help you stay on top of the space industry.